Savoy, IL

10:43 PM CDT on September 25, 2016 (GMT -0500)
Univ Of Illinois-Willard

Weather History for KCMI - November, 2011

Change the Weather History Date:

Wednesday, November 9, 2011

  Actual Average Record
Temperature  
Mean Temperature 47 °F 45 °F  
Max Temperature 60 °F 55 °F 74 °F (2010)
Min Temperature 33 °F 35 °F 21 °F (2003)
Degree Days  
Heating Degree Days 18 20  
Month to date heating degree days 126 166  
Since 1 July heating degree days 569 627  
Cooling Degree Days 0 0  
Month to date cooling degree days 0 0  
Year to date cooling degree days 1222 944  
Moisture  
Dew Point 44 °F    
Average Humidity 85    
Maximum Humidity 93    
Minimum Humidity 76    
Precipitation  
Precipitation 0.15 in 0.11 in 1.41 in (2000)
Month to date precipitation 1.93 1.01  
Year to date precipitation 27.02 34.71  
Sea Level Pressure  
Sea Level Pressure 29.85 in    
Wind  
Wind Speed 20 mph (SW)    
Max Wind Speed 36 mph    
Max Gust Speed 46 mph    
Visibility 9 miles    
Events Rain    
T = Trace of Precipitation, MM = Missing Value Source: NWS Daily Summary

Daily Weather History Graph

Daily Weather History Graph

Search for Another Location

Airport or City:

Trip Planner

Search our weather history database for the weather conditions in past years. The results will help you decide how hot, cold, wet, or windy it might be!

Date:

Astronomy

Nov. 09, 2011 Rise Set
Actual Time 6:31 AM CST 4:42 PM CST
Civil Twilight 6:02 AM CST 5:10 PM CST
Nautical Twilight 5:30 AM CST 5:43 PM CST
Astronomical Twilight 4:58 AM CST 6:15 PM CST
Moon 3:53 PM CST (11/9) 5:26 AM CST (11/9)
Length of Visible Light 11h 08m
Length of Day
10h 11m
Waxing Gibbous, 99% of the Moon is Illuminated
Nov 9
Waxing Gibbous
Nov 10
Full
Nov 18
Last Quarter
Nov 25
New
Dec 2
First Quarter

Hourly Weather History & Observations

Time (CST) Temp. Windchill Dew Point Humidity Pressure Visibility Wind Dir Wind Speed Gust Speed Precip Events Conditions
12:53 AM 60.1 °F - 57.9 °F 93% 29.79 in 6.0 mi SSE 25.3 mph 31.1 mph 0.06 in Rain Light Rain
1:53 AM 59.0 °F - 57.0 °F 93% 29.76 in 10.0 mi SSE 21.9 mph - 0.00 in   Overcast
2:26 AM 59.0 °F - 57.2 °F 94% 29.75 in 10.0 mi SE 17.3 mph 25.3 mph N/A   Mostly Cloudy
2:53 AM 60.1 °F - 57.0 °F 90% 29.72 in 10.0 mi SE 23.0 mph 29.9 mph N/A   Overcast
3:17 AM 59.0 °F - 57.2 °F 94% 29.72 in 10.0 mi SSE 21.9 mph 28.8 mph N/A   Overcast
3:35 AM 59.0 °F - 55.4 °F 88% 29.71 in 10.0 mi SE 19.6 mph 28.8 mph N/A   Overcast
3:53 AM 59.0 °F - 55.9 °F 90% 29.70 in 10.0 mi SSE 20.7 mph 29.9 mph N/A   Overcast
4:53 AM 57.9 °F - 55.9 °F 93% 29.67 in 6.0 mi SSE 18.4 mph - 0.01 in Rain Rain
5:25 AM 57.2 °F - 55.4 °F 94% 29.65 in 9.0 mi SSE 20.7 mph 27.6 mph 0.04 in Rain Light Rain
5:53 AM 57.9 °F - 55.9 °F 93% 29.63 in 5.0 mi SSE 19.6 mph 25.3 mph 0.06 in Rain Light Rain
6:53 AM 59.0 °F - 57.0 °F 93% 29.65 in 10.0 mi SSW 21.9 mph 26.5 mph 0.01 in Rain Light Rain
7:06 AM 57.2 °F - 51.8 °F 82% 29.67 in 10.0 mi SW 23.0 mph 40.3 mph N/A   Overcast
7:17 AM 55.4 °F - 51.8 °F 88% 29.67 in 10.0 mi SW 23.0 mph 32.2 mph N/A   Mostly Cloudy
8:53 AM 52.0 °F - 48.0 °F 86% 29.72 in 10.0 mi WSW 32.2 mph 40.3 mph N/A   Mostly Cloudy
9:53 AM 48.0 °F - 43.0 °F 83% 29.76 in 10.0 mi SW 26.5 mph 46.0 mph N/A   Overcast
10:53 AM 44.1 °F 34.2 °F 41.0 °F 89% 29.80 in 4.0 mi WSW 28.8 mph 36.8 mph 0.00 in Rain Light Rain
11:53 AM 41.0 °F 30.2 °F 37.9 °F 89% 29.83 in 7.0 mi WSW 27.6 mph 39.1 mph 0.01 in Rain Light Rain
12:53 PM 41.0 °F 30.2 °F 37.0 °F 86% 29.86 in 10.0 mi West 27.6 mph 40.3 mph 0.00 in   Overcast
1:00 PM 42.8 °F 32.7 °F 37.4 °F 81% 29.85 in 10.0 mi West 27.6 mph 38.0 mph N/A   Overcast
1:53 PM 42.1 °F 31.3 °F 36.0 °F 79% 29.89 in 10.0 mi West 29.9 mph 39.1 mph N/A   Overcast
2:53 PM 41.0 °F 30.5 °F 36.0 °F 82% 29.94 in 10.0 mi West 26.5 mph 34.5 mph 0.00 in   Overcast
3:53 PM 41.0 °F 31.6 °F 36.0 °F 82% 29.99 in 10.0 mi West 20.7 mph 31.1 mph N/A   Overcast
4:53 PM 39.9 °F 29.7 °F 35.1 °F 83% 30.04 in 10.0 mi WNW 23.0 mph 32.2 mph 0.00 in   Overcast
5:40 PM 41.0 °F 31.6 °F 35.6 °F 81% 30.05 in 10.0 mi WNW 20.7 mph 26.5 mph N/A   Overcast
5:53 PM 41.0 °F 31.9 °F 35.1 °F 79% 30.07 in 10.0 mi WNW 19.6 mph 27.6 mph N/A   Overcast
6:53 PM 39.0 °F 32.8 °F 36.0 °F 89% 30.08 in 10.0 mi West 9.2 mph - N/A   Scattered Clouds
7:53 PM 36.0 °F 30.3 °F 34.0 °F 93% 30.09 in 10.0 mi WSW 6.9 mph - N/A   Clear
8:53 PM 35.1 °F 29.3 °F 32.0 °F 89% 30.10 in 10.0 mi WSW 6.9 mph - N/A   Clear
9:53 PM 34.0 °F 28.0 °F 30.9 °F 89% 30.10 in 10.0 mi SW 6.9 mph - N/A   Clear
10:53 PM 34.0 °F 28.8 °F 30.9 °F 89% 30.09 in 10.0 mi WSW 5.8 mph - N/A   Clear
11:53 PM 34.0 °F 27.2 °F 30.9 °F 89% 30.09 in 10.0 mi WSW 8.1 mph - N/A   Clear